Hourly Data Report for August 29, 2020

LYTTON RCS
BRITISH COLUMBIA
Current Station Operator: ECCC - MSC

50°13'28.000" N
121°34'55.000" W
225.00 m
1114746
71765
VLY

Download Data

Hourly Data (August 2020)
Hourly Data Report for August 29, 2020
TIME Temp Definition
°C
Dew Point Definition
°C
Rel Hum Definition
%
Wind Dir Definition
10's deg

Wind Spd Definition
km/h
Visibility Definition
km
Stn Press Definition
kPa
Hmdx Definition


Wind Chill Definition


Weather Definition


00:00 20.7 6.6 40 19 24   98.40     LegendNANA
01:00 19.9 6.6 42 19 24   98.41     LegendNANA
02:00 19.0 6.7 45 18 32   98.40     LegendNANA
03:00 18.5 6.6 46 18 31   98.41     LegendNANA
04:00 17.6 6.6 48 17 32   98.48     LegendNANA
05:00 17.2 6.5 49 16 12   98.59     LegendNANA
06:00 16.9 6.8 51 16 5   98.71     LegendNANA
07:00 17.4 5.1 44 16 1   98.78     LegendNANA
08:00 17.2 3.6 40 36 10   98.81     LegendNANA
09:00 16.5 4.7 45 1 8   98.90     LegendNANA
10:00 15.1 8.4 64 18 14   98.88     LegendNANA
11:00 19.4 5.7 41 16 20   98.82     LegendNANA
12:00 22.0 3.9 31 17 14   98.72     LegendNANA
13:00 22.9 2.8 27 17 10   98.64     LegendNANA
14:00 24.7 4.3 27 19 13   98.55     LegendNANA
15:00 25.0 5.2 28 18 15   98.53     LegendNANA
16:00 22.6 5.6 33 19 21   98.50     LegendNANA
17:00 22.0 6.3 36 18 21   98.54     LegendNANA
18:00 21.2 6.0 37 20 20   98.61     LegendNANA
19:00 18.1 9.2 56 14 6   98.76     LegendNANA
20:00 13.6 11.7 88 19 17   98.93     LegendNANA
21:00 13.9 9.9 77 15 24   98.98     LegendNANA
22:00 13.9 9.3 74 16 23   99.06     LegendNANA
23:00 13.4 9.6 78 15 18   99.15     LegendNANA

Notes on Data Quality.

Legend

  • E = Estimated
  • M = Missing
  • NA = Not Available*
  • [empty] = Indicates an unobserved value
Date modified: